EHI
0 0 0 0 0 0 0 0 0 0 0 0 0 0 0 0 0 0 0 0 0 0 0 0 0 0 0 0 0 0 0 0 0 0 0 0 0 0 0 0 0 0 0 0
0 0 0 0 0 0 0 0 0 0 0 0 0 0 0 0 0 0 0 0 0 0 0 0 0 0 0 0 0 0 0 0 0 0 0 0 0 0 0 0 0 0 0 0
0 0 0 0 0 0 0 0 0 0 0 0 0 0 0 0 0 0 0 0 0 0 0 0 0 0 0 0 0 0 0 0 0 0 0 0 0 0 0 0 0 0 0 0
0 0 0 0 0 0 0 0 0 0 0 0 0 0 0 0 0 0 0 0 0 0 0 0 0 0 0 0 0 0 0 0 0 0 0 0 0 0 0 0 0 0 0 0
0 0 0 0 0 0 0 0 0 0 0 0 0 0 0 0 0 0 0 0 0 0 0 0 0 0 0 0 0 0 0 0 0 0 0 0 0 0 0 0 0 0 0 0
0 0 0 0 0 0 0 0 0 0 0 0 0 0 0 0 0 0 0 0 0 0 0 0 0 0 0 0 0 0 0 0 0 0 0 0 0 0 0 0 0 0 0 0
0 0 0 0 0 0 0 0 0 0 0 0 0 0 0 0 0 0 0 0 0 0 0 0 0 0 0 0 0 0 0 0 0 0 0 0 0 0 0 0 0 0 0 0
0 0 0 0 0 0 0 0 0 0 0 0 0 0 0 0 0 0 0 0 0 0 0 0 0 0 0 0 0 0 0 0 0 0 0 0 0 0 0 0 0 0 0 0
0 0 0 0 0 0 0 0 0 0 0 0 0 0 0 0 0 0 0 0 0 0 0 0 0 0 0 0 0 0 0 0 0 0 0 0 0 0 0 0 0 0 0 0
0 0 0 0 0 0 0 0 0 0 0 0 0 0 0 0 0 0 0 0 0 0 0 0 0 0 0 0 0 0 0 0 0 0 0 0 0 0 0 0 0 0 0 0
0 0 0 0 0 0 0 0 0 0 0 0 0 0 0 0 0 0 0 0 0 0 0 0 0 0 0 0 0 0 0 0 0 0 0 0 0 0 0 0 0 0 0 0
0 0 0 0 0 0 0 0 0 0 0 0 0 0 0 0 0 0 0 0 0 0 0 0 0 0 0 0 0 0 0 0 0 0 0 0 0 0 0 0 0 0 0 0
0 0 0 0 0 0 0 0 0 0 0 0 0 0 0 0 0 0 0 0 0 0 0 0 0 0 0 0 0 0 0 0 0 0 0 0 0 0 0 0 0 0 0 0
0 0 0 0 0 0 0 0 0 0 0 0 0 0 0 0 0 0 0 0 0 0 0 0 0 0 0 0 0 0 0 0 0 0 0 0 0 0 0 0 0 0 0 0
0 0 0 0 0 0 0 0 0 0 0 0 0 0 0 0 0 0 0 0 0 0 0 0 0 0 0 0 0 0 0 0 0 0 0 0 0 0 0 0 0 0 0 0
0 0 0 0 0 0 0 0 0 0 0 0 0 0 0 0 0 0 0 0 0 0 0 0 0 0 0 0 0 0 0 0 0 0 0 0 0 0 0 0 0 0 0 0
0 0 0 0 0 0 0 0 0 0 0 0 0 0 0 0 0 0 0 0 0 0 0 0 0 0 0 0 0 0 0 0 0 0 0 0 0 0 0 0 0 0 0 0
0 0 0 0 0 0 0 0 0 0 0 0 0 0 0 0 0 0 0 0 0 0 0 0 0 0 0 0 0 0 0 0 0 0 0 0 0 0 0 0 0 0 0 0
0 0 0 0 0 0 0 0 0 0 0 0 0 0 0 0 0 0 0 0 0 0 0 0 0 0 0 0 0 0 0 0 0 0 0 0 0 0 0 0 0 0 0 0
0 0 0 0 0 0 0 0 0 0 0 0 0 0 0 0 0 0 0 0 0 0 0 0 0 0 0 0 0 0 0 0 0 0 0 0 0 0 0 0 0 0 0 0
0 0 0 0 0 0 0 0 0 0 0 0 0 0 0 0 0 0 0 0 0 0 0 0 0 0 0 0 0 0 0 0 0 0 0 0 0 0 0 0 0 0 0 0
0 0 0 0 0 0 0 0 0 0 0 0 0 0 0 0 0 0 0 0 0 0 0 0 0 0 0 0 0 0 0 0 0 0 0 0 0 0 0 0 0 0 0 0
0 0 0 0 0 0 0 0 0 0 0 0 0 0 0 0 0 0 0 0 0 0 0 0 0 0 0 0 0 0 0 0 0 0 0 0 0 0 0 0 0 0 0 0
0 0 0 0 0 0 0 0 0 0 0 0 0 0 0 0 0 0 0 0 0 0 0 0 0 0 0 0 0 0 0 0 0 0 0 0 0 0 0 0 0 0 0 0
0 0 0 0 0 0 0 0 0 0 0 0 0 0 0 0 0 0 0 0 0 0 0 0 0 0 0 0 0 0 0 0 0 0 0 0 0 0 0 0 0 0 0 0
0 0 0 0 0 0 0 0 0 0 0 0 0 0 0 0 0 0 0 0 0 0 0 0 0 0 0 0 0 0 0 0 0 0 0 0 0 0 0 0 0 0 0 0
0 0 0 0 0 0 0 0 0 0 0 0 0 0 0 0 0 0 0 0 0 0 0 0 0 0 0 0 0 0 0 0 0 0 0 0 0 0 0 0 0 0 0 0
Wind_Speed
7 6 5 7 7 7 9 9 9 10 10 9 5 4 3 2 1 1 1 1 1 1 1 1 1 0 0 0 1 1 1 1 1 2 1 1 2 2 2 2 3 3 3 4
6 4 5 8 7 8 10 9 10 9 11 6 4 1 2 2 2 2 3 3 2 1 1 1 1 1 1 1 1 1 1 1 1 1 1 2 2 2 2 2 3 3 4 4
5 3 3 7 6 7 5 6 6 10 10 4 4 4 4 4 4 3 3 2 2 2 2 2 1 1 1 2 1 1 1 1 1 1 2 2 2 2 3 3 3 3 4 4
3 2 7 6 1 3 5 5 5 5 5 4 4 3 2 2 3 2 2 2 2 2 2 1 1 1 1 1 1 1 1 2 2 2 2 2 2 3 3 3 3 4 4 5
2 4 8 5 1 1 3 6 3 5 5 4 3 3 3 1 1 2 2 2 2 2 2 1 1 1 1 1 1 1 2 2 2 2 3 3 3 4 3 3 3 4 4 4
3 4 7 4 3 3 1 5 2 2 4 3 2 2 4 1 1 2 1 0 1 1 1 1 1 1 1 1 1 2 3 3 3 3 3 4 4 4 3 3 4 4 5 4
5 5 7 3 3 1 2 5 4 2 3 2 3 4 3 2 2 2 1 1 0 1 1 1 1 1 1 2 3 3 3 3 3 3 3 4 3 3 3 3 3 4 5 5
3 5 7 3 2 2 4 4 3 3 2 2 3 3 3 2 2 2 2 1 0 0 1 1 1 1 2 3 3 2 2 3 3 3 3 3 2 3 3 3 3 4 4 5
5 4 2 1 1 3 3 3 3 3 3 2 3 3 3 3 2 2 1 1 1 0 1 1 1 1 2 3 2 2 3 3 3 3 3 3 3 3 3 3 3 4 4 4
3 4 4 3 4 5 4 4 4 3 3 2 3 3 3 3 3 2 2 1 1 0 1 2 2 2 2 3 2 2 3 3 3 3 3 3 3 3 3 3 3 4 4 4
4 5 5 4 4 5 5 4 4 4 3 2 2 3 3 3 3 3 2 2 1 1 2 3 2 2 3 2 1 2 3 3 3 3 3 3 3 3 4 4 5 5 4 4
5 4 5 6 5 5 4 5 4 4 4 3 2 3 3 3 3 2 2 2 2 2 3 3 2 3 3 2 2 2 3 3 3 3 3 3 3 4 6 6 9 9 8 7
5 5 5 5 6 5 5 5 5 3 3 4 3 2 3 3 3 2 2 2 2 3 3 3 2 3 3 3 2 3 3 4 3 3 3 3 3 3 4 5 7 7 8 9
4 4 4 5 5 6 5 5 4 3 3 3 3 2 2 3 3 3 3 3 3 2 3 2 3 4 4 3 3 3 3 4 4 3 3 3 3 3 3 3 4 4 6 8
5 3 4 5 5 5 5 4 4 4 4 4 3 3 2 3 4 4 4 3 2 2 3 3 3 4 3 3 3 3 3 3 3 3 3 3 3 3 3 4 4 4 4 5
6 4 3 4 6 6 5 5 4 5 5 5 4 4 4 3 4 4 3 2 2 3 4 4 4 4 3 3 3 3 3 5 4 3 2 2 2 3 3 3 3 3 4 4
5 6 6 6 7 6 6 5 5 5 5 5 5 5 4 3 3 3 3 3 3 4 4 4 5 4 4 3 3 2 2 4 6 4 2 3 3 3 3 3 3 4 4 5
3 4 5 5 5 6 7 6 5 5 5 5 5 4 3 3 4 4 4 4 3 4 4 4 4 4 4 3 3 2 2 2 2 2 2 3 3 3 3 3 4 4 4 5
5 5 5 5 5 4 5 6 6 5 5 4 4 4 4 4 4 4 4 3 3 4 5 4 6 4 3 4 3 2 2 2 2 2 2 4 4 3 3 3 3 4 4 4
6 6 5 5 5 4 5 5 5 5 5 4 4 4 4 4 4 4 3 4 4 4 4 5 4 3 3 3 3 1 2 2 3 3 2 3 3 3 3 3 3 4 4 4
7 6 6 5 6 5 4 5 5 5 5 5 4 4 5 5 4 3 3 4 4 4 4 5 3 3 3 3 3 1 2 2 3 3 3 3 3 3 4 4 4 4 4 4
6 6 6 6 5 6 5 4 4 5 5 5 5 5 5 5 4 4 3 3 4 6 4 2 2 4 4 3 1 1 2 2 2 3 3 3 3 3 4 4 4 4 4 4
5 5 5 5 5 6 6 5 5 4 5 5 5 5 5 4 3 3 4 3 3 6 4 3 5 6 6 2 1 1 2 2 2 3 3 3 3 4 4 4 4 4 4 4
5 5 5 5 4 4 6 6 6 5 5 5 4 5 4 4 3 3 3 5 7 7 3 5 7 7 6 2 1 1 2 2 3 3 3 3 3 3 3 4 4 4 4 5
5 5 4 5 4 4 5 6 6 5 5 4 5 5 4 3 3 4 4 4 6 6 4 5 7 7 4 2 2 2 2 3 3 3 3 3 3 3 4 4 4 4 4 5
5 5 4 4 4 4 4 4 4 4 4 4 4 4 4 3 3 3 3 4 5 6 5 3 3 4 3 2 3 3 3 4 4 3 3 3 4 4 4 4 5 5 5 5
5 4 4 4 4 4 4 4 4 4 4 4 5 5 4 4 4 4 4 4 4 4 4 3 3 3 3 3 3 3 3 3 3 3 3 4 4 4 4 5 5 5 5 5
Wind_Direction
260 272 256 246 236 214 212 217 227 250 252 264 259 250 251 251 232 173 183 175 167 164 166 147 104 92 203 187 149 143 152 189 222 225 220 236 248 251 255 256 260 259 265 270
272 269 274 269 253 228 228 234 243 261 268 278 284 263 255 248 230 226 218 209 196 188 183 196 204 248 276 253 205 155 178 229 248 232 236 251 256 257 263 265 268 268 266 269
273 309 324 267 241 212 216 222 218 240 256 283 296 269 246 236 226 225 225 216 210 215 216 224 231 235 240 253 228 186 218 246 252 252 260 264 264 264 262 263 262 266 266 264
275 0 253 253 156 190 219 243 234 253 275 269 269 286 274 224 201 225 247 240 223 212 226 241 231 246 254 271 221 214 238 253 256 255 262 269 264 262 262 261 259 262 266 262
211 247 272 291 345 175 217 261 246 246 274 302 337 353 317 233 187 230 243 239 220 207 211 200 200 221 227 267 250 236 248 254 259 261 263 265 263 263 268 264 266 262 261 258
202 226 248 282 323 308 154 282 320 254 269 295 15 301 277 313 323 304 316 244 203 173 153 180 217 193 206 259 258 259 259 259 263 262 259 258 258 263 267 262 265 271 275 267
221 238 262 310 316 34 164 277 323 291 268 238 231 243 282 321 324 324 324 327 284 156 192 214 201 188 250 257 260 268 277 274 272 266 264 261 257 259 259 267 274 273 275 275
198 227 260 357 67 175 254 309 323 313 291 258 268 294 305 316 320 329 334 342 354 195 278 268 213 211 261 269 281 288 286 285 278 273 272 272 255 262 261 258 265 270 274 280
206 223 306 112 223 284 320 307 310 310 305 278 279 289 302 308 307 309 307 303 304 225 288 293 256 232 257 282 294 294 290 286 284 283 278 273 253 257 262 251 257 269 268 275
276 285 300 295 311 319 319 302 311 314 311 293 271 274 291 299 309 309 302 292 302 254 280 289 287 286 274 283 288 282 282 285 284 280 280 276 268 258 257 255 259 268 269 271
276 297 315 305 310 314 323 330 326 322 312 289 260 276 281 287 291 290 295 302 287 258 267 279 288 294 297 291 275 282 284 280 281 276 272 273 271 260 262 250 250 263 260 260
268 290 286 293 320 332 327 319 313 317 320 319 284 276 284 285 287 287 288 293 286 280 280 285 291 294 295 286 266 264 279 283 278 272 270 273 277 289 282 282 286 289 291 291
284 305 290 296 319 329 319 316 316 312 300 306 304 286 283 290 295 293 289 286 275 275 278 280 284 287 288 286 274 264 269 278 276 272 271 272 274 281 296 303 299 300 301 303
316 321 309 318 317 327 327 322 325 330 326 315 309 312 307 306 305 298 289 285 282 283 281 276 276 279 280 276 274 273 274 277 278 269 267 266 270 273 277 288 300 305 305 306
330 317 290 305 319 329 332 338 346 340 337 335 329 318 311 303 297 295 296 300 300 292 287 284 280 281 280 274 275 272 271 273 272 271 270 269 272 274 275 279 284 295 304 307
321 328 327 325 325 328 335 336 327 319 319 317 316 312 306 297 293 296 297 292 282 280 282 279 277 278 277 272 276 273 269 280 285 282 278 276 272 270 275 280 285 289 292 297
335 331 330 327 324 323 319 313 304 303 305 305 306 309 308 305 305 307 306 299 283 276 276 276 281 284 278 269 263 265 269 277 285 290 278 274 273 271 272 275 278 283 286 291
301 294 296 298 304 310 314 314 310 307 302 301 307 308 301 295 293 297 302 304 302 296 290 288 289 289 282 273 263 259 261 269 272 275 279 277 275 270 272 272 275 281 289 297
329 320 317 315 308 302 304 309 313 312 310 310 307 300 296 293 290 292 299 297 292 293 294 291 295 302 288 275 279 256 259 266 274 278 278 283 291 283 273 272 277 281 287 293
333 330 325 324 323 316 310 313 316 315 314 313 310 310 312 310 306 304 301 289 278 279 286 291 294 291 282 269 275 251 252 258 266 273 276 274 277 280 278 277 280 284 287 289
329 329 330 330 327 326 321 318 319 318 320 321 315 309 306 307 305 301 300 300 305 302 296 299 306 294 283 280 279 252 252 262 267 267 269 271 274 277 279 280 282 284 284 286
327 330 329 330 330 329 328 326 321 319 321 322 320 315 312 311 312 309 293 285 299 310 317 301 295 295 299 302 276 263 265 268 269 270 269 270 272 275 278 281 283 284 284 284
324 326 326 326 326 321 323 326 325 321 319 317 317 316 312 307 305 306 310 313 310 314 323 307 306 310 320 333 313 287 280 277 277 276 276 275 274 275 277 281 282 283 284 285
328 329 325 323 327 330 331 330 328 323 316 311 312 315 318 319 317 310 305 312 322 324 321 315 321 323 332 343 320 301 291 285 282 279 279 280 279 277 276 279 282 283 282 283
328 327 328 334 336 331 325 325 326 329 330 326 327 329 326 318 312 317 320 318 323 333 331 325 329 335 343 334 321 305 295 286 284 285 279 283 283 281 280 281 280 281 282 281
329 329 327 323 318 316 319 322 325 327 329 328 330 331 333 334 330 327 329 332 330 332 332 325 327 332 334 326 316 307 299 300 306 304 293 288 285 284 283 283 282 280 279 279
332 333 332 333 331 326 323 322 320 321 324 323 322 327 333 335 334 335 336 337 336 333 328 328 331 328 324 320 316 312 307 302 297 294 293 289 286 284 284 285 284 284 283 280